MTN528 TKPK-TNCM

Flight info

Callsign MTN528
Flight time 0h 29m
Altitude 8000
Route SKB DCT ZPATA A517 PJM
Aircraft K100/L-SBDGRY/S

Departure

Time 2026-04-21 21:44
Airport Robert L. Bradshaw International Airport (TKPK)

Arrival

Time 2026-04-21 22:14
Airport Princess Juliana International Airport (TNCM)
Time Latitude Longitude Altitude Speed Heading
2026-04-21 21:24 17.31173 -62.71499 149 ft 0 kts 322°
2026-04-21 21:40 17.31185 -62.71526 152 ft 9 kts 267°
2026-04-21 21:41 17.31147 -62.71609 156 ft 14 kts 237°
2026-04-21 21:41 17.31085 -62.71698 157 ft 16 kts 235°
2026-04-21 21:41 17.31063 -62.71822 165 ft 21 kts 268°
2026-04-21 21:41 17.31034 -62.72000 175 ft 28 kts 244°
2026-04-21 21:42 17.30910 -62.72197 174 ft 25 kts 237°
2026-04-21 21:42 17.30796 -62.72384 173 ft 34 kts 239°
2026-04-21 21:42 17.30683 -62.72568 170 ft 10 kts 242°
2026-04-21 21:42 17.30609 -62.72669 168 ft 18 kts 224°
2026-04-21 21:43 17.30527 -62.72736 164 ft 15 kts 259°
2026-04-21 21:43 17.30566 -62.72755 166 ft 9 kts 62°
2026-04-21 21:43 17.30641 -62.72626 170 ft 45 kts 54°
2026-04-21 21:43 17.30910 -62.72190 234 ft 85 kts 60°
2026-04-21 21:44 17.31201 -62.71620 415 ft 93 kts 65°
2026-04-21 21:44 17.31491 -62.71023 676 ft 89 kts 58°
2026-04-21 21:44 17.31890 -62.70506 849 ft 100 kts 44°
2026-04-21 21:44 17.32518 -62.70150 1083 ft 106 kts
2026-04-21 21:45 17.33216 -62.70318 1358 ft 107 kts 332°
2026-04-21 21:45 17.33919 -62.70709 1515 ft 117 kts 334°
2026-04-21 21:45 17.34641 -62.71102 1747 ft 118 kts 329°
2026-04-21 21:45 17.35362 -62.71556 1936 ft 120 kts 323°
2026-04-21 21:46 17.35949 -62.72148 2192 ft 119 kts 313°
2026-04-21 21:46 17.36529 -62.72789 2363 ft 122 kts 312°
2026-04-21 21:46 17.37072 -62.73449 2615 ft 119 kts 310°
2026-04-21 21:46 17.37627 -62.74112 2794 ft 122 kts 313°
2026-04-21 21:47 17.38207 -62.74757 3004 ft 121 kts 311°
2026-04-21 21:47 17.38789 -62.75404 3230 ft 119 kts 314°
2026-04-21 21:47 17.39338 -62.76005 3483 ft 116 kts 314°
2026-04-21 21:47 17.39900 -62.76603 3734 ft 114 kts 315°
2026-04-21 21:48 17.40504 -62.77164 3903 ft 119 kts 320°
2026-04-21 21:48 17.41115 -62.77719 4157 ft 115 kts 319°
2026-04-21 21:48 17.41753 -62.78249 4321 ft 119 kts 319°
2026-04-21 21:48 17.42331 -62.78857 4556 ft 116 kts 313°
2026-04-21 21:49 17.42889 -62.79490 4717 ft 120 kts 312°
2026-04-21 21:49 17.43447 -62.80140 4917 ft 120 kts 311°
2026-04-21 21:49 17.44046 -62.80769 5080 ft 122 kts 318°
2026-04-21 21:49 17.44694 -62.81335 5255 ft 122 kts 322°
2026-04-21 21:50 17.45382 -62.81876 5431 ft 123 kts 324°
2026-04-21 21:50 17.46073 -62.82391 5605 ft 122 kts 325°
2026-04-21 21:50 17.46768 -62.82896 5778 ft 122 kts 325°
2026-04-21 21:50 17.47502 -62.83346 5953 ft 122 kts 333°
2026-04-21 21:51 17.48270 -62.83740 6129 ft 122 kts 334°
2026-04-21 21:51 17.49035 -62.84119 6303 ft 122 kts 335°
2026-04-21 21:51 17.49793 -62.84491 6475 ft 121 kts 335°
2026-04-21 21:51 17.50561 -62.84865 6650 ft 121 kts 335°
2026-04-21 21:52 17.51316 -62.85231 6822 ft 120 kts 335°
2026-04-21 21:52 17.52076 -62.85600 6996 ft 120 kts 335°
2026-04-21 21:52 17.52830 -62.85966 7170 ft 119 kts 335°
2026-04-21 21:52 17.53583 -62.86331 7344 ft 119 kts 335°
2026-04-21 21:53 17.54329 -62.86693 7517 ft 118 kts 335°
2026-04-21 21:53 17.55071 -62.87053 7677 ft 119 kts 335°
2026-04-21 21:53 17.55827 -62.87419 7829 ft 119 kts 335°
2026-04-21 21:53 17.56584 -62.87786 7980 ft 120 kts 335°
2026-04-21 21:54 17.57342 -62.88153 8091 ft 123 kts 335°
2026-04-21 21:54 17.58155 -62.88544 8100 ft 132 kts 335°
2026-04-21 21:54 17.59007 -62.88952 8097 ft 138 kts 336°
2026-04-21 21:54 17.59886 -62.89376 8094 ft 141 kts 332°
2026-04-21 21:55 17.60783 -62.89823 8093 ft 143 kts 335°
2026-04-21 21:55 17.61692 -62.90263 8092 ft 144 kts 335°
2026-04-21 21:55 17.62606 -62.90705 8091 ft 144 kts 335°
2026-04-21 21:55 17.63521 -62.91149 8091 ft 145 kts 335°
2026-04-21 21:56 17.64429 -62.91589 8091 ft 145 kts 335°
2026-04-21 21:56 17.65346 -62.92034 8091 ft 145 kts 335°
2026-04-21 21:56 17.66261 -62.92478 8091 ft 145 kts 335°
2026-04-21 21:56 17.67168 -62.92918 8091 ft 145 kts 335°
2026-04-21 21:57 17.68088 -62.93365 8091 ft 145 kts 335°
2026-04-21 21:57 17.69001 -62.93808 8091 ft 145 kts 335°
2026-04-21 21:57 17.69913 -62.94250 8091 ft 145 kts 335°
2026-04-21 21:57 17.70834 -62.94698 8091 ft 145 kts 335°
2026-04-21 21:58 17.71739 -62.95137 8091 ft 145 kts 335°
2026-04-21 21:58 17.72659 -62.95584 8091 ft 145 kts 335°
2026-04-21 21:58 17.73570 -62.96027 8091 ft 145 kts 335°
2026-04-21 21:58 17.74490 -62.96473 8091 ft 145 kts 335°
2026-04-21 21:59 17.75397 -62.96914 8091 ft 145 kts 335°
2026-04-21 21:59 17.76317 -62.97361 8091 ft 145 kts 335°
2026-04-21 21:59 17.77234 -62.97807 8091 ft 145 kts 335°
2026-04-21 21:59 17.78143 -62.98248 8091 ft 145 kts 335°
2026-04-21 22:00 17.79061 -62.98694 8091 ft 145 kts 335°
2026-04-21 22:00 17.79979 -62.99141 8091 ft 145 kts 335°
2026-04-21 22:00 17.80890 -62.99583 8091 ft 145 kts 335°
2026-04-21 22:00 17.81795 -63.00024 8091 ft 145 kts 335°
2026-04-21 22:01 17.82713 -63.00470 8091 ft 145 kts 335°
2026-04-21 22:01 17.83636 -63.00919 8091 ft 145 kts 335°
2026-04-21 22:01 17.84541 -63.01359 8091 ft 145 kts 335°
2026-04-21 22:01 17.85462 -63.01807 8091 ft 145 kts 335°
2026-04-21 22:02 17.86372 -63.02249 8091 ft 145 kts 335°
2026-04-21 22:02 17.87283 -63.02693 8091 ft 145 kts 335°
2026-04-21 22:02 17.88201 -63.03139 8091 ft 145 kts 335°
2026-04-21 22:02 17.89120 -63.03587 8091 ft 145 kts 335°
2026-04-21 22:03 17.90026 -63.04028 8091 ft 145 kts 335°
2026-04-21 22:03 17.90947 -63.04476 8091 ft 145 kts 335°
2026-04-21 22:03 17.91857 -63.04919 8091 ft 145 kts 335°
2026-04-21 22:03 17.92775 -63.05366 8091 ft 145 kts 335°
2026-04-21 22:04 17.93684 -63.05809 8091 ft 145 kts 335°
2026-04-21 22:04 17.94601 -63.06246 8091 ft 145 kts 336°
2026-04-21 22:04 17.95523 -63.06683 8076 ft 146 kts 336°
2026-04-21 22:04 17.96376 -63.07212 7830 ft 140 kts 309°
2026-04-21 22:05 17.96666 -63.08161 7578 ft 138 kts 271°
2026-04-21 22:05 17.96689 -63.09152 7335 ft 137 kts 271°
2026-04-21 22:05 17.96699 -63.10163 7083 ft 137 kts 270°
2026-04-21 22:05 17.96707 -63.11155 6836 ft 137 kts 270°
2026-04-21 22:06 17.96715 -63.12172 6573 ft 138 kts 270°
2026-04-21 22:06 17.96723 -63.13177 6312 ft 138 kts 270°
2026-04-21 22:06 17.96732 -63.14190 6050 ft 139 kts 271°
2026-04-21 22:06 17.96740 -63.15194 5790 ft 139 kts 271°
2026-04-21 22:07 17.96748 -63.16202 5528 ft 138 kts 271°
2026-04-21 22:07 17.96757 -63.17208 5267 ft 138 kts 271°
2026-04-21 22:07 17.96766 -63.18228 5002 ft 138 kts 271°
2026-04-21 22:07 17.96775 -63.19226 4741 ft 138 kts 271°
2026-04-21 22:08 17.96784 -63.20238 4477 ft 138 kts 271°
2026-04-21 22:08 17.96793 -63.21243 4215 ft 138 kts 271°
2026-04-21 22:08 17.96802 -63.22238 3955 ft 137 kts 271°
2026-04-21 22:08 17.97040 -63.23181 3691 ft 137 kts 311°
2026-04-21 22:09 17.97695 -63.23895 3439 ft 136 kts 315°
2026-04-21 22:09 17.98547 -63.24240 3178 ft 136 kts
2026-04-21 22:09 17.99359 -63.23788 2927 ft 137 kts 52°
2026-04-21 22:09 17.99946 -63.23018 2672 ft 134 kts 46°
2026-04-21 22:10 18.00643 -63.22372 2405 ft 132 kts 39°
2026-04-21 22:10 18.01326 -63.21804 2171 ft 119 kts 38°
2026-04-21 22:10 18.01985 -63.21289 1910 ft 118 kts 36°
2026-04-21 22:10 18.02478 -63.20654 1783 ft 108 kts 64°
2026-04-21 22:11 18.02758 -63.19917 1747 ft 107 kts 73°
2026-04-21 22:11 18.02953 -63.19108 1491 ft 122 kts 78°
2026-04-21 22:11 18.03087 -63.18216 1222 ft 126 kts 85°
2026-04-21 22:11 18.03155 -63.17309 1100 ft 119 kts 82°
2026-04-21 22:12 18.03272 -63.16502 1059 ft 107 kts 78°
2026-04-21 22:12 18.03412 -63.15717 916 ft 110 kts 81°
2026-04-21 22:12 18.03511 -63.14925 734 ft 106 kts 81°
2026-04-21 22:12 18.03614 -63.14246 571 ft 89 kts 79°
2026-04-21 22:13 18.03705 -63.13635 336 ft 79 kts 81°
2026-04-21 22:13 18.03774 -63.13087 203 ft 74 kts 81°
2026-04-21 22:13 18.03855 -63.12548 138 ft 74 kts 77°
2026-04-21 22:13 18.03931 -63.12013 58 ft 73 kts 79°
2026-04-21 22:14 18.04003 -63.11505 19 ft 65 kts 78°
2026-04-21 22:14 18.04055 -63.11190 14 ft 14 kts 62°
2026-04-21 22:14 18.04132 -63.11165 14 ft 10 kts 337°
2026-04-21 22:14 18.04140 -63.11235 14 ft 10 kts 259°
2026-04-21 22:15 18.04153 -63.11297 14 ft 8 kts 344°
2026-04-21 22:15 18.04206 -63.11305 15 ft 6 kts 341°
2026-04-21 22:15 18.04238 -63.11356 16 ft 11 kts 270°
2026-04-21 22:15 18.04225 -63.11448 18 ft 12 kts 250°
2026-04-21 22:16 18.04187 -63.11519 18 ft 10 kts 230°
2026-04-21 22:16 18.04191 -63.11552 19 ft 3 kts 330°
2026-04-21 22:16 18.04215 -63.11567 20 ft 4 kts 319°
2026-04-21 22:16 18.04237 -63.11587 21 ft 0 kts 322°